Regional Weather Roundup
Issued by NWS

Home | Current Version | Previous Version | Graphics & Text | Print | Product List | Glossary On
Versions: 1 2 3 4 5 6 7 8 9 10 11 12 13 14 15 16 17 18 19 20 21 22 23 24 25 26 27 28 29 30 31 32 33 34 35 36 37 38 39 40 41 42 43 44 45 46 47 48 49 50
000
ASUS43 KLMK 270510
RWRKY
KENTUCKY REGIONAL WEATHER ROUNDUP
NATIONAL WEATHER SERVICE LOUISVILLE KY
1200 AM EST TUE JAN 27 2015

NOTE "FAIR" INDICATES FEW OR NO CLOUDS BELOW 12,000 FEET
WITH NO SIGNIFICANT WEATHER AND/OR OBSTRUCTIONS TO VISIBILITY.

KYZ001>023-026-027-061>063-070>075-270600-
WESTERN AND SOUTH CENTRAL KENTUCKY

CITY           SKY/WX    TMP DP  RH WIND       PRES   REMARKS
PADUCAH        CLOUDY    37  32  82 CALM      29.93F
HENDERSON      CLOUDY    30  27  86 S5        29.94S WCI  25
OWENSBORO      CLOUDY    30  29  96 S7        29.94F WCI  23
HOPKINSVILLE   CLOUDY    34  31  89 SE6       29.94F WCI  28
BOWLING GREEN  CLOUDY    31  29  92 S3        29.96S FOG
GLASGOW        CLOUDY    30  30 100 CALM      29.94F FOG
$$

KYZ024-025-028>034-038-045-046-053-270600-
NORTH CENTRAL KENTUCKY

CITY           SKY/WX    TMP DP  RH WIND       PRES   REMARKS
LOUISVILLE/SDF FLURRIES  31  25  78 CALM      29.94F
LOUISVILLE/LOU CLOUDY    31  25  78 CALM      29.94F
FORT KNOX      CLOUDY    28  25  89 SW2       29.92F
$$

KYZ035>037-039>044-047>052-055>060-089>105-270600-
NORTHEAST KENTUCKY

CITY           SKY/WX    TMP DP  RH WIND       PRES   REMARKS
LEXINGTON      CLOUDY    28  23  81 CALM      29.93S
COVINGTON      CLOUDY    25  17  72 E6        29.93S WCI  18
FRANKFORT      CLOUDY    29  22  75 SW3       29.93R
$$

KYZ054-064>069-076>088-106>120-270600-
SOUTHEAST KENTUCKY

CITY           SKY/WX    TMP DP  RH WIND       PRES   REMARKS
JACKSON        CLOUDY    26  22  84 CALM      29.90F
LONDON         CLOUDY    30  22  72 SW6       29.92F WCI  24
SOMERSET       CLOUDY    30  28  93 W8        29.95S WCI  23
MIDDLESBORO    CLOUDY    31  25  78 CALM      29.92F
MONTICELLO     CLOUDY    30  29  96 CALM      29.97S
$$




USA.gov is the U.S. government's official web portal to all federal, state and local government web resources and services.